User: anonymous   Login
Location: Asar Burnu
(36.5203°N, 30.5523°E)
Time: 21:08:04
(UTC+00:00)
Language:

CSL-04 Debris - Orbit

View from above orbital plane
View from above orbital plane
View from above satellite
View from above satellite

Ground track
Ground track

The orbit data is extracted from the following two-line orbital elements,

1 25733U 99025D   24276.67451871  .00002358  00000-0  11732-2 0  9999
2 25733  98.7645 319.5294 0015174 164.2059 195.9592 14.17923790311760
Epoch (UTC): 02 October 2024 16:11:18
Eccentricity: 0.0015174
inclination: 98.7645°
perigee height: 821 km
apogee height: 843 km
right ascension of ascending node: 319.5294°
argument of perigee: 164.2059°
revolutions per day: 14.17923790
mean anomaly at epoch: 195.9592°
orbit number at epoch: 31176

The dashed part of the orbit path shows where the satellite is in the earth's shadow,  

DLR